Weather History for West Bend, WI

Change the Weather History Date:

Thursday, October 17, 2013

  Actual Average Record
Temperature  
Mean Temperature 45 °F -  
Max Temperature 51 °F 58 °F 80 °F (1947)
Min Temperature 39 °F 37 °F 21 °F (1998)
Degree Days  
Heating Degree Days 20    
Moisture  
Dew Point 38 °F    
Average Humidity 77    
Maximum Humidity 93    
Minimum Humidity 50    
Precipitation  
Precipitation 0.02 in - - ()
Sea Level Pressure  
Sea Level Pressure 29.84 in    
Wind  
Wind Speed 3 mph (WSW)    
Max Wind Speed 10 mph    
Max Gust Speed 16 mph    
Visibility 10 miles    
Events Rain    
Averages and records for this station are not official NWS values.
T = Trace of Precipitation, MM = Missing Value Source: NWS Daily Summary

Daily Weather History Graph

Daily Weather History Graph

Search for Another Location

Airport:

Trip Planner

Search our weather history database for the weather conditions in past years. The results will help you decide how hot, cold, wet, or windy it might be!

Date:

Astronomy

Oct. 17, 2013 Rise Set
Actual Time 7:09 AM CDT 6:05 PM CDT
Civil Twilight 6:40 AM CDT 6:34 PM CDT
Nautical Twilight 6:07 AM CDT 7:07 PM CDT
Astronomical Twilight 5:34 AM CDT 7:40 PM CDT
Moon 5:20 PM CDT (10/17) 5:39 AM CDT (10/17)
Length of Visible Light 11h 54m
Length of Day
10h 56m
Waxing Gibbous, 98% of the Moon is Illuminated
Oct 17
Waxing Gibbous
Oct 18
Full
Oct 26
Last Quarter
Nov 3
New
Nov 9
First Quarter

Hourly Weather History & Observations

Time (CDT) Temp. Windchill Dew Point Humidity Pressure Visibility Wind Dir Wind Speed Gust Speed Precip Events Conditions
12:15 AM 44.6 °F 42.2 °F 42.8 °F 93% 29.91 in 10.0 mi NNW 4.6 mph - N/A   Drizzle
12:35 AM 44.6 °F 43.1 °F 41.0 °F 87% 29.91 in 10.0 mi NW 3.5 mph - N/A   Drizzle
12:55 AM 44.6 °F - 41.0 °F 87% 29.90 in 10.0 mi Calm Calm - N/A   Overcast
1:15 AM 44.6 °F - 41.0 °F 87% 29.90 in 10.0 mi Calm Calm - N/A   Drizzle
1:35 AM 44.6 °F - 41.0 °F 87% 29.89 in 10.0 mi Calm Calm - N/A   Overcast
1:55 AM 44.6 °F - 42.8 °F 93% 29.89 in 10.0 mi Calm Calm - N/A   Overcast
2:15 AM 44.6 °F - 42.8 °F 93% 29.89 in 10.0 mi Calm Calm - N/A   Overcast
2:35 AM 44.6 °F - 42.8 °F 93% 29.89 in 10.0 mi Calm Calm - N/A   Overcast
2:55 AM 44.6 °F - 42.8 °F 93% 29.88 in 10.0 mi Calm Calm - N/A   Overcast
3:15 AM 44.6 °F - 41.0 °F 87% 29.88 in 10.0 mi Calm Calm - N/A   Overcast
3:35 AM 44.6 °F - 41.0 °F 87% 29.87 in 10.0 mi Calm Calm - N/A   Overcast
3:55 AM 44.6 °F - 41.0 °F 87% 29.87 in 10.0 mi Calm Calm - N/A   Overcast
4:15 AM 44.6 °F - 41.0 °F 87% 29.87 in 10.0 mi Calm Calm - N/A   Overcast
4:35 AM 44.6 °F 43.1 °F 41.0 °F 87% 29.87 in 10.0 mi West 3.5 mph - N/A   Overcast
4:55 AM 44.6 °F - 41.0 °F 87% 29.88 in 10.0 mi Calm Calm - N/A   Overcast
5:15 AM 44.6 °F 43.1 °F 41.0 °F 87% 29.88 in 10.0 mi WNW 3.5 mph - N/A   Overcast
5:35 AM 44.6 °F - 41.0 °F 87% 29.89 in 10.0 mi Calm Calm - N/A   Overcast
5:55 AM 44.6 °F - 41.0 °F 87% 29.88 in 10.0 mi Calm Calm - N/A   Overcast
6:15 AM 44.6 °F - 41.0 °F 87% 29.88 in 10.0 mi Calm Calm - N/A   Overcast
6:35 AM 44.6 °F - 41.0 °F 87% 29.87 in 10.0 mi Calm Calm - N/A   Overcast
6:55 AM 44.6 °F - 41.0 °F 87% 29.86 in 10.0 mi Calm Calm - N/A   Overcast
7:15 AM 44.6 °F - 41.0 °F 87% 29.86 in 10.0 mi Calm Calm - N/A   Overcast
7:55 AM 44.6 °F - 39.2 °F 81% 29.86 in 10.0 mi Calm Calm - N/A   Overcast
8:15 AM 44.6 °F - 41.0 °F 87% 29.86 in 10.0 mi Calm Calm - N/A   Overcast
8:35 AM 44.6 °F 40.7 °F 37.4 °F 76% 29.87 in 10.0 mi WNW 6.9 mph - N/A   Overcast
8:55 AM 44.6 °F 41.4 °F 37.4 °F 76% 29.86 in 10.0 mi WNW 5.8 mph - N/A Rain Rain
9:15 AM 44.6 °F 42.2 °F 37.4 °F 76% 29.86 in 10.0 mi West 4.6 mph - N/A Rain Light Rain
9:35 AM 42.8 °F 39.3 °F 37.4 °F 81% 29.86 in 10.0 mi WNW 5.8 mph - 0.01 in Rain Rain
9:55 AM 42.8 °F 40.1 °F 37.4 °F 81% 29.86 in 10.0 mi West 4.6 mph - 0.01 in Rain Light Rain
10:15 AM 42.8 °F 39.3 °F 37.4 °F 81% 29.86 in 7.0 mi West 5.8 mph - N/A Rain Light Rain
10:35 AM 42.8 °F 39.3 °F 37.4 °F 81% 29.85 in 10.0 mi West 5.8 mph - 0.01 in Rain Light Rain
10:55 AM 42.8 °F 38.6 °F 39.2 °F 87% 29.85 in 10.0 mi West 6.9 mph - 0.01 in   Drizzle
11:15 AM 44.6 °F 42.2 °F 37.4 °F 76% 29.85 in 10.0 mi WNW 4.6 mph - N/A   Drizzle
11:35 AM 44.6 °F 43.1 °F 37.4 °F 76% 29.84 in 10.0 mi NW 3.5 mph - N/A   Light Drizzle
12:35 PM 46.4 °F - 35.6 °F 66% 29.83 in 10.0 mi Calm Calm - N/A   Overcast
12:55 PM 46.4 °F 45.2 °F 35.6 °F 66% 29.82 in 10.0 mi WNW 3.5 mph - N/A   Overcast
1:15 PM 48.2 °F - 35.6 °F 62% 29.81 in 10.0 mi West 6.9 mph - N/A   Overcast
1:35 PM 48.2 °F - 35.6 °F 62% 29.81 in 10.0 mi West 9.2 mph - N/A   Overcast
2:15 PM 50.0 °F - 35.6 °F 58% 29.80 in 10.0 mi WNW 6.9 mph - N/A   Mostly Cloudy
2:35 PM 50.0 °F - 35.6 °F 58% 29.80 in 10.0 mi WSW 6.9 mph - N/A   Scattered Clouds
2:55 PM 50.0 °F - 33.8 °F 54% 29.80 in 10.0 mi West 10.4 mph - N/A   Mostly Cloudy
3:55 PM 51.8 °F - 35.6 °F 54% 29.79 in 10.0 mi WSW 10.4 mph - N/A   Overcast
4:15 PM 51.8 °F - 33.8 °F 50% 29.79 in 10.0 mi WSW 9.2 mph - N/A   Mostly Cloudy
4:35 PM 51.8 °F - 33.8 °F 50% 29.79 in 10.0 mi West 6.9 mph 16.1 mph N/A   Scattered Clouds
5:15 PM 50.0 °F - 33.8 °F 54% 29.80 in 10.0 mi WSW 4.6 mph - N/A   Scattered Clouds
5:35 PM 48.2 °F - 35.6 °F 62% 29.80 in 10.0 mi WSW 6.9 mph - N/A   Scattered Clouds
5:55 PM 46.4 °F 44.3 °F 35.6 °F 66% 29.80 in 10.0 mi SW 4.6 mph - N/A   Clear
6:15 PM 46.4 °F 43.5 °F 35.6 °F 66% 29.81 in 10.0 mi SW 5.8 mph - N/A   Clear
6:55 PM 44.6 °F 43.1 °F 35.6 °F 71% 29.82 in 10.0 mi SSW 3.5 mph - N/A   Scattered Clouds
7:15 PM 42.8 °F 41.1 °F 35.6 °F 76% 29.82 in 10.0 mi SW 3.5 mph - N/A   Clear
7:35 PM 42.8 °F 40.1 °F 35.6 °F 76% 29.82 in 10.0 mi SW 4.6 mph - N/A   Clear
7:55 PM 42.8 °F 40.1 °F 35.6 °F 76% 29.82 in 10.0 mi SW 4.6 mph - N/A   Clear
8:15 PM 42.8 °F 39.3 °F 35.6 °F 76% 29.82 in 10.0 mi SW 5.8 mph - N/A   Clear
8:35 PM 44.6 °F 42.2 °F 35.6 °F 71% 29.82 in 10.0 mi WSW 4.6 mph - N/A   Clear
8:55 PM 44.6 °F 42.2 °F 35.6 °F 71% 29.82 in 10.0 mi WSW 4.6 mph - N/A   Clear
9:15 PM 44.6 °F 42.2 °F 35.6 °F 71% 29.82 in 10.0 mi SW 4.6 mph - N/A   Clear
9:35 PM 44.6 °F 42.2 °F 35.6 °F 71% 29.82 in 10.0 mi WSW 4.6 mph - N/A   Clear
9:55 PM 44.6 °F 42.2 °F 35.6 °F 71% 29.82 in 10.0 mi WSW 4.6 mph - N/A   Clear
10:15 PM 42.8 °F 41.1 °F 35.6 °F 76% 29.82 in 10.0 mi SW 3.5 mph - N/A   Clear
10:35 PM 44.6 °F 42.2 °F 35.6 °F 71% 29.82 in 10.0 mi SW 4.6 mph - N/A   Clear
10:55 PM 42.8 °F 40.1 °F 35.6 °F 76% 29.82 in 10.0 mi SW 4.6 mph - N/A   Clear
11:15 PM 42.8 °F 41.1 °F 35.6 °F 76% 29.82 in 10.0 mi SSW 3.5 mph - N/A   Clear
11:35 PM 39.2 °F 37.0 °F 35.6 °F 87% 29.82 in 10.0 mi SSW 3.5 mph - N/A   Clear
11:55 PM 41.0 °F - 35.6 °F 81% 29.81 in 10.0 mi Calm Calm - N/A   Clear